Retour au catalogue

QIANFAN-53

ActifCommunicationsPO
NORAD 62254·PAYLOAD·🇨🇳 China

Lancé Dec 5, 2024 depuis Taiyuan Satellite Launch Center

Loading…

Prochains Passages (prochaines 24 heures)

TLE

FraisSource: Space-Track

Époque: Sep 14, 2026, 21:20 UTC

1 62254U 24232T   26257.88944457  .00000098  00000-0  13258-3 0  9992
2 62254  89.0162  13.5096 0016125 114.4312 245.8523 13.51026897105199

Suivez QIANFAN-53 en temps réel avec AllMySat

Download on the App Store